TimeEDT,TemperatureF,Dew PointF,Humidity,Sea Level PressureIn,VisibilityMPH,Wind Direction,Wind SpeedMPH,Gust SpeedMPH,PrecipitationIn,Events,Conditions,WindDirDegrees,DateUTC
12:54 AM,68.0,64.0,87,30.01,10.0,WSW,3.5,-,N/A,,Mostly Cloudy,250,2014-08-07 04:54:00
1:54 AM,66.9,64.0,90,30.00,9.0,Calm,Calm,-,N/A,,Clear,0,2014-08-07 05:54:00
2:54 AM,66.0,63.0,90,29.99,8.0,Calm,Calm,-,N/A,,Scattered Clouds,0,2014-08-07 06:54:00
3:54 AM,66.0,63.0,90,29.98,9.0,NNW,5.8,-,N/A,,Scattered Clouds,330,2014-08-07 07:54:00
4:54 AM,64.0,63.0,96,29.99,6.0,Calm,Calm,-,N/A,,Clear,0,2014-08-07 08:54:00
5:54 AM,63.0,61.0,93,29.99,6.0,Calm,Calm,-,N/A,,Clear,0,2014-08-07 09:54:00
6:33 AM,64.0,62.1,93,30.08,6.0,Calm,Calm,-,N/A,,Scattered Clouds,0,2014-08-07 10:33:00
6:38 AM,64.0,62.1,93,30.08,7.0,Calm,Calm,-,N/A,,Mostly Cloudy,0,2014-08-07 10:38:00
6:54 AM,63.0,61.0,93,30.01,5.0,Calm,Calm,-,N/A,,Overcast,0,2014-08-07 10:54:00
7:52 AM,64.4,62.6,94,30.10,4.0,Calm,Calm,-,N/A,,Scattered Clouds,0,2014-08-07 11:52:00
7:54 AM,64.9,62.1,90,30.03,4.0,Calm,Calm,-,N/A,,Partly Cloudy,0,2014-08-07 11:54:00
8:54 AM,68.0,64.0,87,30.04,6.0,NW,6.9,-,N/A,,Clear,320,2014-08-07 12:54:00
9:54 AM,70.0,64.0,81,30.05,9.0,NNW,8.1,-,N/A,,Clear,340,2014-08-07 13:54:00
10:54 AM,73.0,64.9,76,30.04,10.0,North,5.8,-,N/A,,Mostly Cloudy,360,2014-08-07 14:54:00
11:54 AM,75.9,64.0,67,30.04,10.0,NNW,8.1,-,N/A,,Clear,340,2014-08-07 15:54:00
12:54 PM,78.1,64.0,62,30.04,10.0,WNW,3.5,-,N/A,,Clear,290,2014-08-07 16:54:00
1:54 PM,82.0,62.1,51,30.01,10.0,North,8.1,-,N/A,,Partly Cloudy,360,2014-08-07 17:54:00
2:54 PM,82.0,61.0,49,30.01,10.0,NNW,8.1,-,N/A,,Clear,340,2014-08-07 18:54:00
3:54 PM,84.0,61.0,46,29.99,10.0,North,10.4,-,N/A,,Clear,10,2014-08-07 19:54:00
4:54 PM,82.9,60.1,46,29.99,10.0,North,11.5,-,N/A,,Clear,350,2014-08-07 20:54:00
5:54 PM,82.9,57.9,42,29.99,10.0,NNW,10.4,-,N/A,,Clear,340,2014-08-07 21:54:00
6:54 PM,80.1,57.9,47,29.98,10.0,North,9.2,-,N/A,,Clear,350,2014-08-07 22:54:00
7:54 PM,77.0,62.1,60,30.00,10.0,WNW,5.8,-,N/A,,Clear,290,2014-08-07 23:54:00
8:54 PM,75.9,62.1,62,30.00,10.0,Calm,Calm,-,N/A,,Clear,0,2014-08-08 00:54:00
9:54 PM,73.0,62.1,68,30.01,10.0,Calm,Calm,-,N/A,,Clear,0,2014-08-08 01:54:00
10:54 PM,70.0,64.9,84,30.04,10.0,Calm,Calm,-,N/A,,Clear,0,2014-08-08 02:54:00
11:54 PM,69.1,64.0,84,30.05,9.0,Calm,Calm,-,N/A,,Clear,0,2014-08-08 03:54:00